When you browse on this site, cookies collect data to enhance your experience and personalize the content and advertising you see.
Visit our Privacy Policy to learn more. By continuing to use the site, you agree to this use of cookies and data.
  • In Portugal
  • List of Countries
  • For 7 days
  • Water Temperature
  • Satellite Maps
  • Weather Map
  • Weather Widgets
  • user-avatar
    Login

    Hourly Weather Janczewy

    Today, 17 June, Monday

    Time Temperature Precipitation Wind Pressure Humidity
    00:00 +14°C° 0 mm 3 mps 754 mmHg 84%
    01:00 +13°C° 0 mm 3 mps 755 mmHg 82%
    02:00 +12°C° 0 mm 3 mps 755 mmHg 83%
    03:00 +12°C° 0 mm 3 mps 755 mmHg 85%
    04:00 +11°C° 0 mm 3 mps 755 mmHg 86%
    05:00 +13°C° 0 mm 3 mps 755 mmHg 83%
    06:00 +16°C° 0 mm 3 mps 755 mmHg 80%
    07:00 +17°C° 0 mm 3 mps 755 mmHg 78%
    08:00 +19°C° 0 mm 3 mps 755 mmHg 73%
    09:00 +20°C° 0 mm 3 mps 755 mmHg 68%
    10:00 +21°C° 0 mm 3 mps 755 mmHg 62%
    11:00 +22°C° 0 mm 3 mps 755 mmHg 60%
    12:00 +22°C° 0 mm 3 mps 755 mmHg 59%
    13:00 +24°C° 0 mm 3 mps 755 mmHg 57%
    14:00 +24°C° 0 mm 3 mps 755 mmHg 57%
    15:00 +24°C° 0 mm 3 mps 755 mmHg 57%
    16:00 +24°C° 0 mm 3 mps 755 mmHg 58%
    17:00 +22°C° 0 mm 3 mps 755 mmHg 64%
    18:00 +21°C° 0 mm 3 mps 754 mmHg 69%
    19:00 +20°C° 0 mm 3 mps 754 mmHg 75%
    20:00 +18°C° 0 mm 3 mps 755 mmHg 77%
    21:00 +17°C° 0 mm 2 mps 755 mmHg 78%
    22:00 +16°C° 0 mm 2 mps 755 mmHg 79%
    23:00 +15°C° 0 mm 2 mps 755 mmHg 80%

    Tomorrow, 18 June, Tuesday

    Time Temperature Precipitation Wind Pressure Humidity
    00:00 +15°C° 0 mm 2 mps 755 mmHg 81%
    01:00 +14°C° 0 mm 2 mps 755 mmHg 81%
    02:00 +14°C° 0 mm 2 mps 755 mmHg 83%
    03:00 +13°C° 0 mm 2 mps 755 mmHg 84%
    04:00 +13°C° 0 mm 2 mps 755 mmHg 85%
    05:00 +15°C° 0 mm 2 mps 755 mmHg 82%
    06:00 +16°C° 0 mm 3 mps 755 mmHg 79%
    07:00 +18°C° 0 mm 3 mps 755 mmHg 75%
    08:00 +19°C° 0 mm 3 mps 755 mmHg 70%
    09:00 +20°C° 0 mm 3 mps 755 mmHg 65%
    10:00 +22°C° 0 mm 4 mps 755 mmHg 59%
    11:00 +23°C° 0 mm 4 mps 754 mmHg 58%
    12:00 +23°C° 0 mm 4 mps 754 mmHg 56%
    13:00 +25°C° 0 mm 4 mps 754 mmHg 54%
    14:00 +25°C° 0 mm 4 mps 753 mmHg 55%
    15:00 +25°C° 0 mm 4 mps 753 mmHg 56%
    16:00 +25°C° 0 mm 4 mps 753 mmHg 58%
    17:00 +23°C° 0 mm 4 mps 752 mmHg 63%
    18:00 +22°C° 0 mm 3 mps 752 mmHg 69%
    19:00 +21°C° 0 mm 3 mps 752 mmHg 75%
    20:00 +20°C° 0 mm 3 mps 752 mmHg 77%
    21:00 +19°C° 0 mm 3 mps 752 mmHg 80%
    22:00 +18°C° 0 mm 3 mps 752 mmHg 82%
    23:00 +17°C° 0 mm 3 mps 752 mmHg 83%

    Day after tomorrow, 19 June, Wednesday

    Time Temperature Precipitation Wind Pressure Humidity
    00:00 +17°C° 0 mm 3 mps 751 mmHg 84%
    01:00 +17°C° 0 mm 3 mps 751 mmHg 85%
    02:00 +17°C° 0 mm 3 mps 751 mmHg 86%
    03:00 +16°C° 0 mm 3 mps 751 mmHg 87%
    04:00 +16°C° 0 mm 3 mps 750 mmHg 88%
    05:00 +18°C° 0 mm 3 mps 750 mmHg 85%
    06:00 +19°C° 0 mm 4 mps 750 mmHg 83%
    07:00 +21°C° 0 mm 4 mps 750 mmHg 80%
    08:00 +22°C° 0 mm 4 mps 750 mmHg 78%
    09:00 +23°C° 0 mm 4 mps 749 mmHg 76%
    10:00 +26°C° 0 mm 4 mps 749 mmHg 73%
    11:00 +26°C° 0.1 mm 4 mps 749 mmHg 73%
    12:00 +26°C° 0.1 mm 4 mps 748 mmHg 72%
    13:00 +27°C° 0.1 mm 4 mps 748 mmHg 71%
    14:00 +27°C° 0.1 mm 3 mps 748 mmHg 69%
    15:00 +27°C° 0.1 mm 2 mps 748 mmHg 67%
    16:00 +27°C° 0.1 mm 2 mps 747 mmHg 65%
    17:00 +27°C° 0 mm 1 mps 747 mmHg 69%
    18:00 +26°C° 0 mm 1 mps 747 mmHg 73%
    19:00 +25°C° 0 mm 1 mps 746 mmHg 76%
    20:00 +24°C° 0 mm 1 mps 747 mmHg 79%
    21:00 +23°C° 0 mm 1 mps 747 mmHg 81%
    22:00 +21°C° 0 mm 2 mps 747 mmHg 84%
    23:00 +21°C° 0 mm 2 mps 747 mmHg 85%

    20 June, Thursday

    Time Temperature Precipitation Wind Pressure Humidity
    00:00 +20°C° 0 mm 2 mps 747 mmHg 85%
    01:00 +20°C° 0 mm 2 mps 747 mmHg 86%
    02:00 +20°C° 0 mm 2 mps 747 mmHg 86%
    03:00 +19°C° 0 mm 2 mps 747 mmHg 85%
    04:00 +19°C° 0 mm 2 mps 747 mmHg 85%
    05:00 +21°C° 0 mm 2 mps 747 mmHg 81%
    06:00 +23°C° 0 mm 2 mps 747 mmHg 77%
    07:00 +25°C° 0 mm 1 mps 747 mmHg 73%
    08:00 +26°C° 0.2 mm 1 mps 747 mmHg 69%
    09:00 +27°C° 0.2 mm 1 mps 747 mmHg 66%
    10:00 +28°C° 0.2 mm 1 mps 748 mmHg 62%
    11:00 +29°C° 0.1 mm 1 mps 747 mmHg 58%
    12:00 +29°C° 0.1 mm 1 mps 747 mmHg 54%
    13:00 +30°C° 0.1 mm 1 mps 747 mmHg 50%
    14:00 +30°C° 0 mm 1 mps 747 mmHg 50%
    15:00 +30°C° 0 mm 1 mps 747 mmHg 50%
    16:00 +30°C° 0 mm 1 mps 747 mmHg 50%
    17:00 +29°C° 0.1 mm 1 mps 747 mmHg 57%
    18:00 +28°C° 0.1 mm 1 mps 747 mmHg 65%
    19:00 +26°C° 0.1 mm 2 mps 747 mmHg 72%
    20:00 +25°C° 0 mm 2 mps 747 mmHg 75%
    21:00 +24°C° 0 mm 1 mps 748 mmHg 79%
    22:00 +23°C° 0 mm 1 mps 748 mmHg 82%
    23:00 +22°C° 0 mm 1 mps 748 mmHg 84%

    21 June, Friday

    Time Temperature Precipitation Wind Pressure Humidity
    00:00 +21°C° 0 mm 1 mps 748 mmHg 86%
    01:00 +20°C° 0 mm 2 mps 748 mmHg 89%
    02:00 +21°C° 0 mm 1 mps 748 mmHg 90%
    03:00 +20°C° 0 mm 1 mps 748 mmHg 91%
    04:00 +20°C° 0 mm 1 mps 747 mmHg 92%
    05:00 +22°C° 0 mm 1 mps 748 mmHg 87%
    06:00 +23°C° 0 mm 1 mps 748 mmHg 82%
    07:00 +25°C° 0 mm 1 mps 748 mmHg 77%
    08:00 +26°C° 0.9 mm 1 mps 748 mmHg 70%
    09:00 +28°C° 0.9 mm 1 mps 748 mmHg 64%
    10:00 +29°C° 0.9 mm 1 mps 748 mmHg 58%
    11:00 +29°C° 0.2 mm 1 mps 748 mmHg 57%
    12:00 +29°C° 0.2 mm 2 mps 748 mmHg 56%
    13:00 +30°C° 0.2 mm 3 mps 748 mmHg 55%
    14:00 +29°C° 1.1 mm 3 mps 748 mmHg 61%
    15:00 +28°C° 1.1 mm 4 mps 748 mmHg 67%
    16:00 +27°C° 1.1 mm 5 mps 748 mmHg 73%
    17:00 +26°C° 0.2 mm 5 mps 748 mmHg 77%
    18:00 +23°C° 0.2 mm 4 mps 748 mmHg 81%
    19:00 +22°C° 0.2 mm 4 mps 749 mmHg 85%
    20:00 +21°C° 0 mm 3 mps 749 mmHg 88%
    21:00 +20°C° 0 mm 3 mps 750 mmHg 91%
    22:00 +19°C° 0 mm 3 mps 750 mmHg 94%
    23:00 +18°C° 0 mm 3 mps 750 mmHg 95%

    22 June, Saturday

    Time Temperature Precipitation Wind Pressure Humidity
    00:00 +17°C° 0 mm 3 mps 751 mmHg 96%
    01:00 +17°C° 0 mm 3 mps 751 mmHg 96%
    02:00 +16°C° 0 mm 3 mps 751 mmHg 97%
    03:00 +16°C° 0 mm 3 mps 751 mmHg 97%
    04:00 +16°C° 0 mm 3 mps 752 mmHg 97%
    05:00 +16°C° 0 mm 3 mps 752 mmHg 93%
    06:00 +17°C° 0 mm 4 mps 752 mmHg 88%
    07:00 +18°C° 0 mm 4 mps 753 mmHg 84%
    08:00 +19°C° 0 mm 4 mps 753 mmHg 78%
    09:00 +20°C° 0 mm 4 mps 753 mmHg 72%
    10:00 +21°C° 0 mm 4 mps 753 mmHg 67%
    11:00 +22°C° 0 mm 4 mps 753 mmHg 64%
    12:00 +22°C° 0 mm 5 mps 753 mmHg 61%
    13:00 +23°C° 0 mm 5 mps 753 mmHg 58%
    14:00 +23°C° 0 mm 5 mps 752 mmHg 60%
    15:00 +22°C° 0 mm 5 mps 752 mmHg 62%
    16:00 +22°C° 0 mm 5 mps 752 mmHg 63%
    17:00 +21°C° 0 mm 5 mps 752 mmHg 67%
    18:00 +21°C° 0 mm 5 mps 752 mmHg 70%
    19:00 +20°C° 0 mm 5 mps 752 mmHg 74%
    20:00 +19°C° 0 mm 5 mps 752 mmHg 71%
    21:00 +17°C° 0 mm 6 mps 752 mmHg 69%
    22:00 +17°C° 0 mm 6 mps 753 mmHg 66%
    23:00 +16°C° 0 mm 6 mps 752 mmHg 69%
    Show more